Terminal Aerodrome Forecast
Issued by NWS

Home | Current Version | Previous Version | Text Only | Print | Product List | Glossary On
Versions: 1 2 3 4 5 6 7 8 9 10 11 12
000
FTUS45 KVEF 231100
TAFEED
TAF
KEED 231120Z 2312/2412 24007KT P6SM FEW250
     FM231400 VRB04KT P6SM FEW250
     FM240300 25007KT P6SM SKC=

USA.gov is the U.S. government's official web portal to all federal, state and local government web resources and services.